Terminal Aerodrome Forecast
Issued by NWS Dodge City, KS

Home | Current Version | Previous Version | Graphics & Text | Print | Product List | Glossary On
Versions: 1 2 3 4 5 6 7 8 9 10 11 12 13 14 15 16 17 18 19 20 21 22 23 24 25 26 27 28 29 30 31 32 33 34 35 36 37 38 39 40 41 42 43 44 45 46 47 48 49 50
000
FTUS43 KDDC 261903 AAB
TAFDDC
TAF AMD
KDDC 261903Z 2619/2718 13015G30KT P6SM VCTS BKN040CB
     FM262200 VRB20G30KT 3SM TSRA BKN040CB
     FM270000 14013G22KT P6SM BKN250
     FM270400 17015G24KT P6SM SCT003 WS020/17045KT
     FM270900 18015G23KT 5SM BR BKN040
     FM271100 19010KT 3SM BR SCT150=

USA.gov is the U.S. government's official web portal to all federal, state and local government web resources and services.